Location: Martley
(52.2333°N, 2.3667°W)
Time: 13:12:02
(UTC+00:00)

Meteor 2-19 Rocket - Pass Details

Date: 11 December 2019
Orbit: 936 x 958 km, 82.5° (Epoch: 18 January)

Event Time Altitude Azimuth Distance (km) Brightness Sun altitude
Rises 06:49:12 0° 348° (NNW) 3,655 7.2 -11.2°
Reaches altitude 10° 06:51:42 10° 349° (NNW) 2,705 6.5 -10.9°
Maximum altitude 06:57:55 88° 263° (W) 967 4.5 -10.0°
Drops below altitude 10° 07:04:04 10° 172° (S) 2,680 7.3 -9.1°
Sets 07:06:33 0° 173° (S) 3,619 8.0 -8.8°
